Gwinner, ND

4:02 PM CST on February 23, 2017 (GMT -0600)
Gwinner-melroe

Weather History for KGWR - June, 2013

Change the Weather History Date:

Thursday, June 20, 2013

  Actual Average (KP67) Record (KP67)
Temperature  
Mean Temperature 72 °F -  
Max Temperature 82 °F 78 °F 77 °F (1997)
Min Temperature 62 °F 57 °F 57 °F (1997)
Cooling Degree Days 7    
Growing Degree Days 22 (Base 50)    
Moisture  
Dew Point 69 °F    
Average Humidity 90    
Maximum Humidity 100    
Minimum Humidity 73    
Precipitation  
Precipitation 6.80 in - - ()
Sea Level Pressure  
Sea Level Pressure 29.85 in    
Wind  
Wind Speed 15 mph (East)    
Max Wind Speed 31 mph    
Max Gust Speed 39 mph    
Visibility 8 miles    
Events      
Averages and records for this station are not official NWS values.
T = Trace of Precipitation, MM = Missing Value Source: NWS Daily Summary

Daily Weather History Graph

Daily Weather History Graph

Search for Another Location

Airport or City:

Trip Planner

Search our weather history database for the weather conditions in past years. The results will help you decide how hot, cold, wet, or windy it might be!

Date:

Astronomy

Jun. 20, 2013 Rise Set
Actual Time 5:38 AM CDT 9:25 PM CDT
Civil Twilight 4:59 AM CDT 10:04 PM CDT
Nautical Twilight 4:07 AM CDT 10:57 PM CDT
Astronomical Twilight 2:52 AM CDT 12:11 AM CDT
Moon 6:23 PM CDT (6/20) 3:14 AM CDT (6/20)
Length of Visible Light 17h 04m
Length of Day
15h 47m
Waxing Gibbous, 89% of the Moon is Illuminated
Jun 20
Waxing Gibbous
Jun 23
Full
Jun 29
Last Quarter
Jul 8
New
Jul 15
First Quarter

Hourly Weather History & Observations

Time (CDT) Temp. Heat Index Dew Point Humidity Pressure Visibility Wind Dir Wind Speed Gust Speed Precip Events Conditions
12:15 AM 71.6 °F - 64.4 °F 78% 29.86 in 3.0 mi SE 8.1 mph - 0.07 in   Mostly Cloudy
12:35 AM 71.6 °F - 66.2 °F 83% 29.84 in 3.0 mi East 6.9 mph 19.6 mph 0.20 in   Overcast
12:55 AM 69.8 °F - 66.2 °F 88% 29.88 in 0.8 mi East 13.8 mph 27.6 mph 0.83 in   Overcast
1:15 AM 66.2 °F - 66.2 °F 100% 29.90 in 1.2 mi NNW 5.8 mph - 0.41 in   Overcast
1:35 AM 66.2 °F - 66.2 °F 100% 29.92 in 1.0 mi East 23.0 mph - 1.13 in   Overcast
1:55 AM 66.2 °F - 66.2 °F 100% 29.91 in 1.2 mi ENE 18.4 mph - 1.56 in   Overcast
2:15 AM 66.2 °F - 66.2 °F 100% 29.90 in 5.0 mi ENE 21.9 mph - 0.05 in   Mostly Cloudy
2:35 AM 68.0 °F - 64.4 °F 88% 29.89 in 8.0 mi East 17.3 mph 24.2 mph 0.06 in   Overcast
2:55 AM 68.0 °F - 66.2 °F 94% 29.87 in 4.0 mi East 15.0 mph - 0.14 in   Mostly Cloudy
3:15 AM 68.0 °F - 66.2 °F 94% 29.88 in 5.0 mi North 19.6 mph - 0.01 in   Overcast
3:35 AM 66.2 °F - 66.2 °F 100% 29.86 in 2.0 mi NNW 28.8 mph 39.1 mph 0.18 in   Overcast
3:55 AM 62.6 °F - 62.6 °F 100% 29.91 in 1.0 mi North 19.6 mph 28.8 mph 0.72 in   Overcast
4:15 AM 64.4 °F - 64.4 °F 100% 29.95 in 0.5 mi ENE 16.1 mph 31.1 mph 0.96 in   Overcast
4:35 AM 64.4 °F - 64.4 °F 100% 29.93 in 0.8 mi ESE 17.3 mph 21.9 mph 1.61 in   Overcast
4:55 AM 62.6 °F - 62.6 °F 100% 29.89 in 2.0 mi ESE 20.7 mph - 1.88 in   Overcast
5:15 AM 62.6 °F - 62.6 °F 100% 29.89 in 8.0 mi ESE 10.4 mph - 0.01 in   Overcast
5:35 AM 62.6 °F - 62.6 °F 100% 29.92 in 7.0 mi ESE 13.8 mph - 0.04 in   Mostly Cloudy
5:55 AM 62.6 °F - 62.6 °F 100% 29.90 in 5.0 mi East 16.1 mph 20.7 mph 0.12 in   Mostly Cloudy
6:15 AM 62.6 °F - 62.6 °F 100% 29.87 in 5.0 mi ESE 21.9 mph 28.8 mph 0.01 in   Mostly Cloudy
6:35 AM 62.6 °F - 62.6 °F 100% 29.90 in 7.0 mi ESE 15.0 mph - 0.02 in   Mostly Cloudy
6:55 AM 64.4 °F - 64.4 °F 100% 29.89 in 5.0 mi ESE 12.7 mph - 0.03 in   Overcast
7:15 AM 62.6 °F - 62.6 °F 100% 29.85 in 10.0 mi SE 18.4 mph - 0.00 in   Mostly Cloudy
7:35 AM 62.6 °F - 62.6 °F 100% 29.82 in 10.0 mi SE 20.7 mph - 0.00 in   Partly Cloudy
7:55 AM 64.4 °F - 64.4 °F 100% 29.82 in 10.0 mi SSE 17.3 mph - 0.00 in   Partly Cloudy
8:15 AM 64.4 °F - 64.4 °F 100% 29.83 in 10.0 mi SSE 23.0 mph 31.1 mph 0.00 in   Partly Cloudy
8:35 AM 64.4 °F - 64.4 °F 100% 29.82 in 10.0 mi South 21.9 mph 32.2 mph 0.00 in   Partly Cloudy
8:55 AM 66.2 °F - 66.2 °F 100% 29.83 in 10.0 mi SSE 19.6 mph 28.8 mph 0.00 in   Partly Cloudy
9:15 AM 66.2 °F - 66.2 °F 100% 29.81 in 10.0 mi SSE 12.7 mph - 0.00 in   Scattered Clouds
9:35 AM 68.0 °F - 66.2 °F 94% 29.81 in 10.0 mi South 5.8 mph - 0.00 in   Mostly Cloudy
9:55 AM 69.8 °F - 68.0 °F 94% 29.83 in 10.0 mi NE 13.8 mph - 0.00 in   Mostly Cloudy
10:15 AM 69.8 °F - 66.2 °F 88% 29.84 in 10.0 mi NE 9.2 mph - 0.00 in   Mostly Cloudy
10:35 AM 69.8 °F - 68.0 °F 94% 29.83 in 10.0 mi ENE 11.5 mph - 0.00 in   Mostly Cloudy
10:55 AM 71.6 °F - 68.0 °F 88% 29.84 in 10.0 mi ENE 11.5 mph - 0.00 in   Partly Cloudy
11:15 AM 71.6 °F - 68.0 °F 88% 29.85 in 10.0 mi East 12.7 mph - 0.00 in   Scattered Clouds
11:35 AM 73.4 °F - 68.0 °F 83% 29.86 in 10.0 mi East 15.0 mph 19.6 mph 0.00 in   Scattered Clouds
11:55 AM 73.4 °F - 69.8 °F 88% 29.87 in 10.0 mi ESE 10.4 mph 18.4 mph 0.00 in   Partly Cloudy
12:15 PM 75.2 °F - 66.2 °F 73% 29.87 in 10.0 mi SE 13.8 mph - 0.00 in   Clear
12:35 PM 75.2 °F - 68.0 °F 78% 29.87 in 10.0 mi SE 17.3 mph 23.0 mph 0.00 in   Partly Cloudy
12:55 PM 73.4 °F - 69.8 °F 88% 29.88 in 10.0 mi SE 12.7 mph - 0.00 in   Mostly Cloudy
1:15 PM 75.2 °F - 71.6 °F 89% 29.88 in 10.0 mi SE 17.3 mph - 0.00 in   Mostly Cloudy
1:35 PM 77.0 °F - 71.6 °F 83% 29.86 in 10.0 mi SE 19.6 mph - 0.00 in   Partly Cloudy
1:55 PM 78.8 °F - 73.4 °F 83% 29.85 in 10.0 mi SE 16.1 mph 23.0 mph 0.00 in   Clear
2:15 PM 78.8 °F - 73.4 °F 83% 29.85 in 10.0 mi SE 19.6 mph - 0.00 in   Clear
2:35 PM 80.6 °F 85.4 °F 73.4 °F 79% 29.86 in 10.0 mi ESE 17.3 mph 23.0 mph 0.00 in   Clear
2:55 PM 80.6 °F 85.4 °F 73.4 °F 79% 29.85 in 10.0 mi ESE 17.3 mph 23.0 mph 0.00 in   Clear
3:15 PM 80.6 °F 86.2 °F 75.2 °F 84% 29.85 in 10.0 mi ESE 17.3 mph 20.7 mph 0.00 in   Partly Cloudy
3:35 PM 80.6 °F 86.2 °F 75.2 °F 84% 29.85 in 10.0 mi ESE 18.4 mph - 0.00 in   Mostly Cloudy
3:55 PM 80.6 °F 86.2 °F 75.2 °F 84% 29.85 in 10.0 mi ESE 17.3 mph - 0.00 in   Scattered Clouds
4:15 PM 82.4 °F 88.2 °F 73.4 °F 74% 29.84 in 10.0 mi ESE 18.4 mph 23.0 mph 0.00 in   Partly Cloudy
4:35 PM 82.4 °F 89.5 °F 75.2 °F 79% 29.84 in 10.0 mi ESE 18.4 mph 21.9 mph 0.00 in   Clear
4:55 PM 82.4 °F 88.2 °F 73.4 °F 74% 29.83 in 10.0 mi ESE 13.8 mph 23.0 mph 0.00 in   Scattered Clouds
5:15 PM 82.4 °F 88.2 °F 73.4 °F 74% 29.82 in 10.0 mi ESE 17.3 mph - 0.00 in   Scattered Clouds
5:35 PM 82.4 °F 88.2 °F 73.4 °F 74% 29.81 in 10.0 mi ESE 15.0 mph - 0.00 in   Clear
5:55 PM 82.4 °F 88.2 °F 73.4 °F 74% 29.78 in 10.0 mi ESE 18.4 mph 21.9 mph 0.00 in   Clear
6:15 PM 82.4 °F 88.2 °F 73.4 °F 74% 29.78 in 10.0 mi SE 15.0 mph - 0.00 in   Clear
6:35 PM 82.4 °F 88.2 °F 73.4 °F 74% 29.79 in 10.0 mi ESE 12.7 mph - 0.00 in   Mostly Cloudy
6:55 PM 80.6 °F 85.4 °F 73.4 °F 79% 29.80 in 10.0 mi ESE 9.2 mph - 0.00 in   Mostly Cloudy
7:15 PM 80.6 °F 85.4 °F 73.4 °F 79% 29.80 in 10.0 mi East 8.1 mph - 0.00 in   Overcast
7:35 PM 80.6 °F 85.4 °F 73.4 °F 79% 29.80 in 10.0 mi East 9.2 mph - 0.00 in   Overcast
7:55 PM 80.6 °F 85.4 °F 73.4 °F 79% 29.80 in 10.0 mi East 8.1 mph - 0.00 in   Mostly Cloudy
8:15 PM 78.8 °F - 75.2 °F 89% 29.80 in 10.0 mi East 6.9 mph - 0.00 in   Mostly Cloudy
8:35 PM 78.8 °F - 77.0 °F 94% 29.81 in 10.0 mi East 11.5 mph - 0.00 in   Mostly Cloudy
8:55 PM 78.8 °F - 75.2 °F 89% 29.82 in 10.0 mi ENE 16.1 mph - 0.00 in   Mostly Cloudy
9:15 PM 77.0 °F - 75.2 °F 94% 29.83 in 10.0 mi ENE 18.4 mph - 0.00 in   Mostly Cloudy
9:35 PM 69.8 °F - 69.8 °F 100% 29.84 in 10.0 mi North 15.0 mph - 0.00 in   Overcast
9:55 PM 68.0 °F - 68.0 °F 100% 29.82 in 8.0 mi NE 23.0 mph 31.1 mph 0.00 in   Overcast
10:15 PM 68.0 °F - 68.0 °F 100% 29.83 in 10.0 mi NNE 19.6 mph - 0.00 in   Overcast
10:35 PM 68.0 °F - 68.0 °F 100% 29.83 in 2.0 mi NNE 17.3 mph 27.6 mph 0.19 in   Overcast
10:55 PM 68.0 °F - 68.0 °F 100% 29.83 in 0.8 mi ENE 26.5 mph 29.9 mph 0.81 in   Overcast
11:15 PM 66.2 °F - 66.2 °F 100% 29.81 in 3.0 mi ENE 19.6 mph 33.4 mph 0.02 in   Overcast
11:35 PM 68.0 °F - 68.0 °F 100% 29.91 in 2.5 mi NW 31.1 mph 36.8 mph 0.16 in   Overcast
11:55 PM 62.6 °F - 62.6 °F 100% 29.88 in 0.8 mi North 20.7 mph 33.4 mph 0.71 in   Overcast